Location: Heilbronn
(49.1548°N, 9.2780°E)
Time: 15:09:40
(UTC+02:00)

ELECTRON R/B - Visible Passes

Search period start: 21 May 2018 00:00
Search period end: 31 May 2018 00:00
Orbit: 285 x 480 km, 82.9° (Epoch: 20 May)

Date Brightness Start Highest point End Pass type
(mag) Time Alt. Az. Time Alt. Az. Time Alt. Az.
21 May 7.4 23:04:06 10° WNW 23:05:01 11° W 23:05:56 10° WSW visible
22 May 4.6 22:06:24 10° NNW 22:08:49 67° W 22:11:14 10° S visible
23 May 7.3 22:43:43 10° WNW 22:45:00 13° W 22:46:16 10° WSW visible
25 May 7.3 22:23:07 10° NW 22:24:40 15° W 22:26:13 10° SW visible
27 May 7.2 22:02:15 10° NW 22:04:02 18° W 22:05:51 10° SW visible
